Salvador Airport, Brazil

8:29 PM -02 en Diciembre 13, 2017 (GMT -0200)
DEP. L. E. Magalhaes International

Tiempo Historia de SBSV - Abril, 2017

Change the Weather History Date:

Viernes, Abril 21, 2017

  Actual Average Record
Temperature  
Temperatura media 77 ° F -  
Temperatura máxima 79 ° F 82 ° F 88 ° F (2015)
Temperatura mínima 75 ° F 73 ° F 69 ° F (2006)
Cooling Degree Days 12    
Growing Degree Days 27 (Base 50)    
Moisture  
Punto de rocío 71 ° F    
Average Humidity 81    
Maximum Humidity 94    
Minimum Humidity 55    
Precipitación  
Precipitación 0.12 pul - - ()
Presión al nivel del mar  
Presión al nivel del mar 29.94 pul    
Viento  
Velocidad del viento 7 mph ()    
Velocidad máxima del viento 13 mph    
Max Gust Speed -    
Visibilidad 4.8 Millas    
Eventos Lluvia    
Averages and records for this station are not official NWS values.
T = Trace of Precipitation, MM = Missing Value Source: Averaged Metar Reports

Daily Weather History Graph

Daily Weather History Graph

Search for Another Location

Airport or City:

Trip Planner

Search our weather history database for the weather conditions in past years. The results will help you decide how hot, cold, wet, or windy it might be!

Date:

Astronomía

Apr. 21, 2017 Salida Puesta
Hora real 5:39 AM -03 5:24 PM -03
Crepúsculo civil 5:18 AM -03 5:45 PM -03
Crepúsculo náutico 4:52 AM -03 6:10 PM -03
Crepúsculo astronómico 4:28 AM -03 6:35 PM -03
Luna 12:57 AM -03 (4/21) 1:45 PM -03 (4/21)
Horas de luz 12h 27m
Horas de luz
11h 44m
Creciente menguante, 28% of the Moon is Illuminated
Abr 21
Creciente menguante
Abr 26
Nueva
May 2
Cuarto creciente
May 10
Luna llena
May 18
Cuarto menguante

Hourly Weather History & Observations

Hora (-03) Temp. Índice de calor Punto de rocío Humedad Presión Visibilidad Wind Dir Velocidad del viento Velocidad de ráfagas Precip Eventos Condiciones
12:00 AM 82 ° F - 68 ° F 55% 29.93 pul 12 mi SSE 10.4 mph - -   Muy nublado
12:00 AM 82.4 ° F 85.4 ° F 68.0 ° F 62% 29.92 pul 6.2 mi SSE 10.4 mph - N/A   Muy nublado
1:00 AM 80.6 ° F 83.2 ° F 68.0 ° F 65% 29.89 pul 6.2 mi SSE 11.5 mph - N/A   Muy nublado
2:00 AM 80.6 ° F 83.9 ° F 69.8 ° F 70% 29.89 pul 6.2 mi SSE 9.2 mph - N/A   Muy nublado
3:00 AM 81 ° F - 70 ° F 61% 29.90 pul 12 mi Sur 10.4 mph - -   Parcialmente nublado
3:00 AM 80.6 ° F 83.9 ° F 69.8 ° F 70% 29.89 pul 6.2 mi Sur 10.4 mph - N/A   Muy nublado
4:00 AM 77.0 ° F - 69.8 ° F 78% - 5.0 mi SSO 10.4 mph - N/A Lluvia Lluvias
5:00 AM 75.2 ° F - 68.0 ° F 78% 29.89 pul 6.2 mi SO 4.6 mph - N/A   Muy nublado
6:00 AM 75 ° F - 72 ° F 89% 29.94 pul 2 mi SE 5.8 mph - - Lluvia Lluvia débil
6:00 AM 75.2 ° F - 71.6 ° F 89% 29.92 pul 1.9 mi SE 5.8 mph - N/A Lluvia Lluvia débil
6:25 AM 75.2 ° F - - N/A% 29.95 pul 3.1 mi SE 2.3 mph - N/A   Muy nublado
7:00 AM 77.0 ° F - 71.6 ° F 83% 29.95 pul 6.2 mi SO 4.6 mph - N/A   Muy nublado
8:00 AM 78.8 ° F - 71.6 ° F 78% 29.95 pul 6.2 mi SSE 12.7 mph - N/A   Muy nublado
9:00 AM 79 ° F - 72 ° F 72% 29.99 pul 5 mi SE 3.5 mph - -   Muy nublado
9:00 AM 78.8 ° F - 71.6 ° F 78% - 5.0 mi SE 3.5 mph - N/A   Muy nublado
9:25 AM - - 69.8 ° F N/A% 29.98 pul 2.5 mi SE 2.3 mph - N/A Lluvia Lluvia débil
10:00 AM - - 73.4 ° F N/A% 29.98 pul 2.5 mi SO 6.9 mph - N/A Lluvia Lluvia débil
11:00 AM - - 73.4 ° F N/A% 29.98 pul 3.1 mi SSE 8.1 mph - N/A Lluvia Lluvia débil
11:45 AM - - 73.4 ° F N/A% 29.95 pul 1.6 mi SE 8.1 mph - N/A Lluvia Lluvia débil
12:00 PM 76 ° F - 72 ° F 85% 29.97 pul 1 mi SE 9.2 mph - - Lluvia Lluvia débil
12:00 PM - - 71.6 ° F N/A% 29.95 pul 1.2 mi SE 9.2 mph - N/A Lluvia Lluvia débil
1:00 PM 75.2 ° F - 73.4 ° F 94% 29.95 pul 1.6 mi Sur 6.9 mph - N/A Lluvia Lluvia débil
2:00 PM 77.0 ° F - 73.4 ° F 89% - 5.0 mi SE 5.8 mph - N/A   Muy nublado
3:00 PM 78 ° F - 72 ° F 78% 29.91 pul 3 mi OSO 6.9 mph - -   Neblina
3:00 PM 77.0 ° F - 71.6 ° F 83% 2.98 pul 3.1 mi OSO 6.9 mph - N/A   Muy nublado
4:00 PM 77.0 ° F - 71.6 ° F 83% - 5.0 mi SE 5.8 mph - N/A   Muy nublado
5:00 PM 75.2 ° F - 71.6 ° F 89% 2.98 pul 3.1 mi Oeste 4.6 mph - N/A   Muy nublado
6:00 PM 75 ° F - 72 ° F 88% 29.93 pul 2 mi OSO 6.9 mph - - Lluvia Lluvia débil
6:00 PM 75.2 ° F - 71.6 ° F 89% 2.98 pul 2.5 mi OSO 6.9 mph - N/A   Muy nublado
7:00 PM 75.2 ° F - 71.6 ° F 89% - 5.0 mi OSO 8.1 mph - N/A   Muy nublado
8:00 PM 75.2 ° F - 73.4 ° F 94% 29.95 pul 6.2 mi Oeste 8.1 mph - N/A   Nubes dispersas
9:00 PM 76 ° F - 73 ° F 88% 29.98 pul 12 mi Norte 4.6 mph - -   Parcialmente nublado
9:00 PM 75.2 ° F - 73.4 ° F 94% 29.98 pul 6.2 mi Norte 4.6 mph - N/A   Nubes dispersas
10:00 PM 75.2 ° F - 73.4 ° F 94% 29.98 pul 6.2 mi NE 3.5 mph - N/A   Nubes dispersas
11:00 PM 75.2 ° F - 73.4 ° F 94% 29.95 pul 6.2 mi ENE 4.6 mph - N/A   Nubes dispersas